Location: Unspecified
(0.0000°N, 0.0000°E)
Time: 20:13:42
(UTC+00:00)

OTV 5 (USA 277) - Pass Details

Date: 20 September 2019
Orbit: 295 x 339 km, 54.5° (Epoch: 08 September)

Event Time Altitude Azimuth Distance (km) Brightness Sun altitude
Rises 18:19:16 0° 352° (N) 1,958 ? -6.5°
Reaches altitude 10° 18:21:40 10° 18° (NNE) 1,142 ? -7.1°
Maximum altitude 18:23:16 15° 57° (ENE) 903 ? -7.5°
Enters shadow 18:24:43 11° 94° (E) 1,103 ? -7.8°
